ATLAS 5 CENTAUR R/B - Orbit

View from above orbital plane
View from above orbital plane
View from above satellite
View from above satellite

Ground track
Ground track

The orbit data is extracted from the following two-line orbital elements,

1 30778U 07006G   13138.45707242  .00020613  00000-0  65689-3 0  6799
2 30778 035.6891 135.7436 0021335 219.6243 272.6688 15.31468871344047
Epoch (UTC): 18 May 2013 10:58:11
Eccentricity: 0.0021335
inclination: 35.6891°
perigee height: 457 km
apogee height: 486 km
right ascension of ascending node: 135.7436°
argument of perigee: 219.6243°
revolutions per day: 15.31468871
mean anomaly at epoch: 272.6688°
orbit number at epoch: 34404

The dashed part of the orbit path shows where the satellite is in the earth's shadow,  

Developed and maintained by Chris Peat, Heavens-Above GmbH. Please read the updated FAQ before sending e-mail. Imprint. DLR